When you browse on this site, cookies collect data to enhance your experience and personalize the content and advertising you see.
Visit our Privacy Policy to learn more. By continuing to use the site, you agree to this use of cookies and data.
  • în România
  • Lista ţărilor
  • Pe 7 zile
  • Temperatura apei
  • Hartă satelitară
  • Meteo pe hartă
  • Widget-uri
  • user-avatar
    Intrare

    Meteo pe oră la Glewiec

    Astăzi, 20 Mai, Luni

    Timp Temperatura Precipitaţii Vânt Presiune Umiditate
    00:00 +14°C° 0 mm 2 m/s 732 mmHg 91%
    01:00 +14°C° 0 mm 2 m/s 732 mmHg 91%
    02:00 +14°C° 0 mm 2 m/s 731 mmHg 92%
    03:00 +14°C° 0 mm 2 m/s 731 mmHg 92%
    04:00 +14°C° 0 mm 2 m/s 731 mmHg 93%
    05:00 +14°C° 0 mm 3 m/s 731 mmHg 88%
    06:00 +17°C° 0 mm 4 m/s 731 mmHg 84%
    07:00 +19°C° 0 mm 4 m/s 731 mmHg 77%
    08:00 +20°C° 0 mm 5 m/s 731 mmHg 71%
    09:00 +21°C° 0 mm 5 m/s 732 mmHg 65%
    10:00 +23°C° 0 mm 5 m/s 732 mmHg 59%
    11:00 +23°C° 0 mm 5 m/s 732 mmHg 57%
    12:00 +23°C° 0 mm 5 m/s 732 mmHg 55%
    13:00 +24°C° 0 mm 3 m/s 733 mmHg 55%
    14:00 +24°C° 0 mm 3 m/s 733 mmHg 57%
    15:00 +22°C° 0 mm 3 m/s 733 mmHg 59%
    16:00 +22°C° 0 mm 3 m/s 733 mmHg 60%
    17:00 +21°C° 0.1 mm 3 m/s 733 mmHg 66%
    18:00 +19°C° 0.1 mm 3 m/s 733 mmHg 71%
    19:00 +17°C° 0.1 mm 3 m/s 732 mmHg 77%
    20:00 +16°C° 0 mm 3 m/s 732 mmHg 79%
    21:00 +15°C° 0 mm 2 m/s 733 mmHg 81%
    22:00 +14°C° 0 mm 2 m/s 733 mmHg 84%
    23:00 +14°C° 0 mm 2 m/s 733 mmHg 84%

    Mâine, 21 Mai, Marţi

    Timp Temperatura Precipitaţii Vânt Presiune Umiditate
    00:00 +13°C° 0 mm 1 m/s 733 mmHg 85%
    01:00 +12°C° 0 mm 1 m/s 732 mmHg 85%
    02:00 +12°C° 0 mm 1 m/s 732 mmHg 85%
    03:00 +12°C° 0 mm 1 m/s 732 mmHg 86%
    04:00 +12°C° 0 mm 2 m/s 732 mmHg 86%
    05:00 +13°C° 0 mm 2 m/s 732 mmHg 83%
    06:00 +15°C° 0 mm 2 m/s 732 mmHg 80%
    07:00 +16°C° 0 mm 2 m/s 732 mmHg 76%
    08:00 +17°C° 0.2 mm 2 m/s 732 mmHg 75%
    09:00 +18°C° 0.2 mm 2 m/s 732 mmHg 73%
    10:00 +19°C° 0.2 mm 3 m/s 732 mmHg 72%
    11:00 +18°C° 1.4 mm 3 m/s 731 mmHg 75%
    12:00 +18°C° 1.4 mm 3 m/s 731 mmHg 78%
    13:00 +18°C° 1.4 mm 3 m/s 731 mmHg 81%
    14:00 +17°C° 1.4 mm 3 m/s 731 mmHg 83%
    15:00 +17°C° 1.4 mm 2 m/s 731 mmHg 84%
    16:00 +17°C° 1.4 mm 2 m/s 730 mmHg 85%
    17:00 +16°C° 1.1 mm 3 m/s 730 mmHg 86%
    18:00 +15°C° 1.1 mm 4 m/s 730 mmHg 87%
    19:00 +15°C° 1.1 mm 5 m/s 730 mmHg 88%
    20:00 +14°C° 1 mm 6 m/s 730 mmHg 89%
    21:00 +14°C° 1 mm 6 m/s 731 mmHg 89%
    22:00 +14°C° 1 mm 7 m/s 731 mmHg 90%
    23:00 +14°C° 0.9 mm 7 m/s 731 mmHg 90%

    Poimâine, 22 Mai, Miercuri

    Timp Temperatura Precipitaţii Vânt Presiune Umiditate
    00:00 +14°C° 0.9 mm 7 m/s 731 mmHg 91%
    01:00 +14°C° 0.9 mm 7 m/s 731 mmHg 91%
    02:00 +13°C° 0.6 mm 6 m/s 731 mmHg 91%
    03:00 +13°C° 0.6 mm 6 m/s 731 mmHg 91%
    04:00 +13°C° 0.6 mm 6 m/s 731 mmHg 90%
    05:00 +13°C° 0.5 mm 6 m/s 731 mmHg 90%
    06:00 +14°C° 0.5 mm 6 m/s 731 mmHg 90%
    07:00 +14°C° 0.5 mm 6 m/s 731 mmHg 89%
    08:00 +14°C° 0.4 mm 6 m/s 732 mmHg 89%
    09:00 +14°C° 0.4 mm 5 m/s 732 mmHg 90%
    10:00 +14°C° 0.4 mm 4 m/s 732 mmHg 90%
    11:00 +14°C° 1 mm 4 m/s 732 mmHg 90%
    12:00 +14°C° 1 mm 4 m/s 732 mmHg 91%
    13:00 +14°C° 1 mm 3 m/s 733 mmHg 91%
    14:00 +15°C° 0.5 mm 4 m/s 732 mmHg 89%
    15:00 +15°C° 0.5 mm 4 m/s 732 mmHg 88%
    16:00 +15°C° 0.5 mm 5 m/s 732 mmHg 87%
    17:00 +15°C° 1.3 mm 5 m/s 733 mmHg 88%
    18:00 +15°C° 1.3 mm 6 m/s 733 mmHg 89%
    19:00 +14°C° 1.3 mm 6 m/s 733 mmHg 91%
    20:00 +14°C° 1.1 mm 6 m/s 734 mmHg 91%
    21:00 +14°C° 1.1 mm 7 m/s 734 mmHg 92%
    22:00 +14°C° 1.1 mm 7 m/s 734 mmHg 92%
    23:00 +14°C° 0.4 mm 7 m/s 735 mmHg 93%

    23 Mai, Joi

    Timp Temperatura Precipitaţii Vânt Presiune Umiditate
    00:00 +14°C° 0.4 mm 7 m/s 735 mmHg 93%
    01:00 +14°C° 0.4 mm 6 m/s 735 mmHg 94%
    02:00 +14°C° 0.7 mm 6 m/s 735 mmHg 94%
    03:00 +13°C° 0.7 mm 6 m/s 736 mmHg 94%
    04:00 +13°C° 0.7 mm 5 m/s 736 mmHg 95%
    05:00 +13°C° 1.1 mm 6 m/s 736 mmHg 94%
    06:00 +13°C° 1.1 mm 6 m/s 737 mmHg 94%
    07:00 +13°C° 1.1 mm 6 m/s 737 mmHg 94%
    08:00 +11°C° 1.2 mm 6 m/s 738 mmHg 93%
    09:00 +11°C° 1.2 mm 7 m/s 738 mmHg 93%
    10:00 +10°C° 1.2 mm 7 m/s 738 mmHg 93%
    11:00 +10°C° 0.2 mm 7 m/s 739 mmHg 92%
    12:00 +10°C° 0.2 mm 7 m/s 739 mmHg 92%
    13:00 +10°C° 0.2 mm 6 m/s 739 mmHg 92%
    14:00 +10°C° 0.1 mm 6 m/s 740 mmHg 91%
    15:00 +10°C° 0.1 mm 6 m/s 740 mmHg 90%
    16:00 +10°C° 0.1 mm 6 m/s 740 mmHg 88%
    17:00 +10°C° 0 mm 5 m/s 740 mmHg 88%
    18:00 +10°C° 0 mm 4 m/s 740 mmHg 87%
    19:00 +10°C° 0 mm 3 m/s 740 mmHg 86%
    20:00 +10°C° 0 mm 3 m/s 740 mmHg 85%
    21:00 +10°C° 0 mm 3 m/s 740 mmHg 85%
    22:00 +10°C° 0 mm 3 m/s 740 mmHg 85%
    23:00 +10°C° 0 mm 3 m/s 740 mmHg 85%

    24 Mai, Vineri

    Timp Temperatura Precipitaţii Vânt Presiune Umiditate
    00:00 +9°C° 0 mm 3 m/s 740 mmHg 84%
    01:00 +9°C° 0 mm 3 m/s 740 mmHg 84%
    02:00 +9°C° 0 mm 3 m/s 740 mmHg 85%
    03:00 +9°C° 0 mm 3 m/s 740 mmHg 86%
    04:00 +9°C° 0 mm 3 m/s 740 mmHg 87%
    05:00 +10°C° 0 mm 3 m/s 740 mmHg 83%
    06:00 +11°C° 0 mm 3 m/s 740 mmHg 79%
    07:00 +12°C° 0 mm 3 m/s 740 mmHg 76%
    08:00 +13°C° 0 mm 3 m/s 739 mmHg 69%
    09:00 +14°C° 0 mm 3 m/s 739 mmHg 63%
    10:00 +15°C° 0 mm 4 m/s 739 mmHg 57%
    11:00 +17°C° 0 mm 3 m/s 739 mmHg 55%
    12:00 +18°C° 0 mm 3 m/s 738 mmHg 52%
    13:00 +18°C° 0 mm 3 m/s 738 mmHg 50%
    14:00 +18°C° 0 mm 3 m/s 738 mmHg 51%
    15:00 +18°C° 0 mm 3 m/s 737 mmHg 53%
    16:00 +18°C° 0 mm 2 m/s 737 mmHg 54%
    17:00 +17°C° 0 mm 2 m/s 737 mmHg 59%
    18:00 +15°C° 0 mm 1 m/s 736 mmHg 65%
    19:00 +14°C° 0 mm 1 m/s 736 mmHg 70%
    20:00 +13°C° 0 mm 1 m/s 736 mmHg 72%
    21:00 +12°C° 0 mm 1 m/s 737 mmHg 73%
    22:00 +11°C° 0 mm 1 m/s 737 mmHg 75%
    23:00 +10°C° 0 mm 1 m/s 737 mmHg 77%

    25 Mai, Sâmbătă

    Timp Temperatura Precipitaţii Vânt Presiune Umiditate
    00:00 +10°C° 0 mm 1 m/s 737 mmHg 80%
    01:00 +9°C° 0 mm 1 m/s 736 mmHg 82%
    02:00 +9°C° 0 mm 1 m/s 736 mmHg 83%
    03:00 +9°C° 0 mm 1 m/s 736 mmHg 83%
    04:00 +8°C° 0 mm 1 m/s 736 mmHg 84%
    05:00 +10°C° 0 mm 1 m/s 736 mmHg 79%
    06:00 +12°C° 0 mm 1 m/s 736 mmHg 75%
    07:00 +14°C° 0 mm 1 m/s 736 mmHg 70%
    08:00 +16°C° 0 mm 1 m/s 736 mmHg 65%
    09:00 +18°C° 0 mm 1 m/s 736 mmHg 60%
    10:00 +20°C° 0 mm 1 m/s 736 mmHg 55%
    11:00 +21°C° 0 mm 1 m/s 736 mmHg 53%
    12:00 +21°C° 0 mm 1 m/s 736 mmHg 50%
    13:00 +22°C° 0 mm 1 m/s 736 mmHg 48%
    14:00 +22°C° 0 mm 1 m/s 736 mmHg 48%
    15:00 +23°C° 0 mm 1 m/s 735 mmHg 49%
    16:00 +23°C° 0 mm 1 m/s 735 mmHg 49%
    17:00 +21°C° 0 mm 1 m/s 735 mmHg 55%
    18:00 +20°C° 0 mm 1 m/s 735 mmHg 61%
    19:00 +18°C° 0 mm 1 m/s 735 mmHg 67%
    20:00 +16°C° 0 mm 1 m/s 736 mmHg 72%
    21:00 +15°C° 0 mm 2 m/s 736 mmHg 76%
    22:00 +14°C° 0 mm 2 m/s 736 mmHg 81%
    23:00 +14°C° 0 mm 2 m/s 736 mmHg 86%
    Arată mai mult